period_start,C,m1,H,J0,J1,J2,J3,J4,J5,JA,JB,JC,JD,JJ,JK,JN,#
2018-04-12 00:03:07,0.05,5.74,0.00,24.81,28.44,31.62,14.03,49.57,1031.78,2016.98,1794.04,1891.90,2159.11,599.89,601.11,31.19,0000 0000 0000 0000 000000
2018-04-12 00:08:09,0.05,5.74,0.00,24.77,28.44,31.62,14.11,49.61,1031.76,2016.97,1793.87,1891.17,2159.00,599.95,601.35,31.24,0000 0000 0000 0000 000000
2018-04-12 00:13:10,0.05,5.74,0.00,24.75,28.44,31.65,14.17,49.68,1031.76,2016.98,1793.10,1891.00,2158.65,600.34,601.57,31.29,0000 0000 0000 0000 000000
2018-04-12 00:18:11,0.02,5.75,0.00,24.76,28.44,31.61,14.10,49.70,1031.76,2016.99,1792.98,1890.96,2158.05,599.70,601.13,31.34,0000 0000 0000 0000 000000
2018-04-12 00:23:13,0.08,5.75,0.00,24.78,28.44,31.62,14.10,49.74,1031.76,2016.99,1792.39,1890.37,2157.99,600.13,601.53,31.39,0000 0000 0000 0000 000000
2018-04-12 00:28:14,0.02,5.75,0.00,24.83,28.45,31.61,14.06,49.84,1031.76,2016.99,1792.01,1890.02,2157.76,599.70,600.91,31.44,0000 0000 0000 0000 000000
2018-04-12 00:33:16,0.01,5.75,0.00,24.78,28.45,31.62,14.02,49.71,1031.77,2016.99,1791.98,1889.99,2157.07,599.33,600.69,31.49,0000 0000 0000 0000 000000
2018-04-12 00:38:17,0.06,5.75,0.00,24.76,28.45,31.64,14.16,49.79,1031.76,2016.98,1791.39,1889.61,2156.99,600.40,601.79,31.54,0000 0000 0000 0000 000000
2018-04-12 00:43:18,0.04,5.76,0.00,24.76,28.45,31.60,14.11,49.81,1031.76,2016.98,1791.01,1889.04,2156.65,600.23,601.44,31.59,0000 0000 0000 0000 000000
2018-04-12 00:48:19,0.03,5.76,0.00,24.77,28.45,31.62,14.13,49.73,1031.76,2016.99,1790.77,1889.00,2156.04,599.80,601.02,31.64,0000 0000 0000 0000 000000
2018-04-12 00:53:21,0.03,5.76,0.00,24.77,28.45,31.61,14.16,49.69,1031.72,2016.99,1790.11,1888.96,2156.00,599.98,601.34,31.69,0000 0000 0000 0000 000000
2018-04-12 00:58:22,0.04,5.76,0.00,24.84,28.45,31.60,14.02,49.66,1031.75,2016.99,1789.99,1888.34,2155.92,599.81,601.08,31.74,0000 0000 0000 0000 000000
2018-04-12 01:03:23,0.07,5.77,0.00,24.79,28.45,31.61,14.16,49.68,1031.75,2016.99,1789.41,1888.01,2155.24,600.35,601.45,31.79,0000 0000 0000 0000 000000
2018-04-12 01:08:25,0.01,5.77,0.00,24.77,28.45,31.60,14.14,49.78,1031.75,2016.99,1789.01,1887.99,2155.01,600.03,601.33,31.84,0000 0000 0000 0000 000000
2018-04-12 01:13:26,0.00,5.77,0.00,24.77,28.45,31.58,14.06,49.79,1031.75,2016.99,1788.98,1887.99,2154.99,599.66,601.08,31.89,0000 0000 0000 0000 000000
2018-04-12 01:18:27,0.04,5.77,0.00,24.78,28.45,31.61,13.97,49.74,1031.75,2016.99,1788.59,1887.82,2154.89,599.66,600.98,31.94,0000 0000 0000 0000 000000
2018-04-12 01:23:28,0.07,5.77,0.00,24.80,28.45,31.58,14.08,49.83,1031.76,2016.99,1788.03,1887.14,2154.20,599.98,601.22,31.99,0000 0000 0000 0000 000000
2018-04-12 01:28:30,0.00,5.77,0.00,24.85,28.45,31.60,14.09,49.74,1031.76,2016.99,1787.99,1887.00,2154.02,599.92,601.15,32.04,0000 0000 0000 0000 000000
2018-04-12 01:33:31,0.01,5.77,0.00,24.83,28.45,31.60,14.12,49.83,1031.76,2016.99,1787.73,1886.99,2153.99,599.64,600.83,32.10,0000 0000 0000 0000 000000
2018-04-12 01:38:32,0.05,5.78,0.00,24.82,28.45,31.60,14.13,49.84,1031.75,2016.99,1787.05,1886.76,2153.82,600.05,601.25,32.15,0000 0000 0000 0000 000000
2018-04-12 01:43:33,0.05,5.78,0.00,24.83,28.45,31.60,14.07,49.74,1031.56,2016.99,1786.98,1886.10,2153.13,600.07,601.25,32.20,0000 0000 0000 0000 000000
2018-04-12 01:48:34,0.03,5.78,0.00,24.85,28.45,31.60,14.08,49.77,1031.36,2016.99,1786.61,1886.00,2153.00,599.87,600.86,32.25,0000 0000 0000 0000 000000
2018-04-12 01:53:35,0.01,5.78,0.00,24.86,28.46,31.60,14.16,49.88,1031.31,2016.99,1786.04,1885.98,2152.97,599.78,600.74,32.30,0000 0000 0000 0000 000000
2018-04-12 01:58:37,0.03,5.78,0.00,24.87,28.47,31.60,14.14,49.72,1031.29,2016.99,1785.99,1885.78,2152.42,600.59,601.49,32.35,0000 0000 0000 0000 000000
2018-04-12 02:03:38,0.07,5.79,0.00,24.88,28.47,31.60,14.09,49.77,1031.28,2016.99,1785.56,1885.11,2152.02,599.89,600.63,32.40,0000 0000 0000 0000 000000
2018-04-12 02:08:39,0.01,5.79,0.00,24.91,28.47,31.60,14.10,49.69,1031.28,2016.99,1785.04,1885.00,2151.99,599.88,600.80,32.45,0000 0000 0000 0000 000000
2018-04-12 02:13:40,0.00,5.79,0.00,24.93,28.49,31.60,14.07,49.78,1031.27,2016.99,1784.99,1884.98,2151.85,599.79,600.43,32.50,0000 0000 0000 0000 000000
2018-04-12 02:18:42,0.08,5.79,0.00,24.96,28.50,31.62,14.05,49.77,1031.26,2016.99,1784.56,1884.68,2151.12,599.55,600.25,32.55,0000 0000 0000 0000 000000
2018-04-12 02:23:43,0.04,5.80,0.00,24.97,28.50,31.61,14.09,49.83,1031.24,2016.99,1784.03,1884.07,2151.00,599.99,600.65,32.60,0000 0000 0000 0000 000000
2018-04-12 02:28:44,0.00,5.80,0.00,25.01,28.52,31.62,13.98,49.66,1031.23,2016.99,1783.99,1884.00,2150.95,599.89,600.49,32.65,0000 0000 0000 0000 000000
2018-04-12 02:33:45,0.05,5.80,0.00,25.03,28.52,31.62,14.02,49.71,1031.18,2016.99,1783.66,1883.97,2150.32,600.03,600.42,32.70,0000 0000 0000 0000 000000
2018-04-12 02:38:46,0.05,5.80,0.00,25.10,28.54,31.63,14.05,49.73,1031.23,2016.99,1783.03,1883.53,2150.00,599.82,600.24,32.75,0000 0000 0000 0000 000000
2018-04-12 02:43:48,0.02,5.80,0.00,25.10,28.55,31.64,14.08,49.77,1031.26,2016.98,1782.98,1883.05,2149.96,600.02,600.47,32.80,0000 0000 0000 0000 000000
2018-04-12 02:48:49,0.05,5.80,0.00,25.10,28.57,31.66,14.09,49.83,1031.26,2016.98,1782.62,1883.00,2149.34,599.94,600.36,32.85,0000 0000 0000 0000 000000
2018-04-12 02:53:51,0.03,5.81,0.00,25.10,28.57,31.67,14.04,49.86,1031.26,2016.95,1782.03,1882.86,2149.00,600.02,600.39,32.90,0000 0000 0000 0000 000000
2018-04-12 02:58:52,0.03,5.81,0.00,25.12,28.60,31.69,14.01,49.83,1031.24,2016.90,1781.99,1882.14,2148.93,600.36,600.63,32.95,0000 0000 0000 0000 000000
2018-04-12 03:03:53,0.01,5.81,0.00,25.15,28.61,31.69,14.08,49.83,1031.15,2016.74,1781.61,1882.01,2148.33,599.93,600.19,33.00,0000 0000 0000 0000 000000
2018-04-12 03:08:55,0.04,5.81,0.00,25.19,28.62,31.71,14.02,49.72,1031.10,2016.65,1781.03,1881.93,2148.00,599.98,600.16,33.05,0000 0000 0000 0000 000000
2018-04-12 03:13:56,0.01,5.81,0.00,25.25,28.65,31.72,14.10,49.75,1031.01,2016.34,1780.89,1881.28,2147.77,599.83,599.74,33.11,0000 0000 0000 0000 000000
2018-04-12 03:18:58,0.03,5.81,0.00,25.23,28.66,31.72,14.06,49.77,1031.10,2016.06,1780.13,1881.00,2147.07,600.14,600.04,33.16,0000 0000 0000 0000 000000
2018-04-12 03:23:59,0.01,5.81,0.00,25.24,28.67,31.75,14.09,49.77,1031.04,2016.01,1779.99,1880.84,2146.96,600.38,600.38,33.21,0000 0000 0000 0000 000000
2018-04-12 03:29:00,0.09,5.82,0.00,25.28,28.69,31.76,14.03,49.58,1031.01,2016.01,1779.58,1880.15,2146.35,600.48,600.27,33.26,0000 0000 0000 0000 000000
2018-04-12 03:34:02,0.02,5.82,0.00,25.32,28.71,31.78,14.03,49.77,1031.15,2016.00,1779.02,1880.00,2146.00,599.63,599.46,33.31,0000 0000 0000 0000 000000
2018-04-12 03:39:03,0.01,5.82,0.00,25.39,28.72,31.80,14.01,49.74,1031.20,2016.00,1778.92,1879.96,2145.92,599.58,599.35,33.36,0000 0000 0000 0000 000000
2018-04-12 03:44:04,0.11,5.83,0.00,25.42,28.75,31.80,14.00,49.77,1031.21,2016.00,1778.19,1879.34,2145.25,599.68,599.45,33.41,0000 0000 0000 0000 000000
2018-04-12 03:49:06,0.01,5.83,0.00,25.40,28.76,31.83,14.05,49.94,1031.06,2016.00,1777.99,1879.00,2145.00,599.87,599.61,33.46,0000 0000 0000 0000 000000
2018-04-12 03:54:07,0.06,5.83,0.00,25.42,28.78,31.86,14.10,49.76,1030.98,2016.00,1777.58,1878.88,2144.57,600.74,600.28,33.51,0000 0000 0000 0000 000000
2018-04-12 03:59:08,0.06,5.83,0.00,25.47,28.80,31.89,13.98,49.75,1030.87,2015.99,1777.02,1878.19,2144.01,599.89,599.37,33.56,0000 0000 0000 0000 000000
2018-04-12 04:04:09,0.01,5.83,0.00,25.52,28.82,31.90,14.02,49.83,1030.82,2015.98,1776.95,1878.00,2143.98,599.91,599.26,33.61,0000 0000 0000 0000 000000
2018-04-12 04:09:11,0.06,5.84,0.00,25.50,28.84,31.92,14.10,49.79,1030.80,2015.96,1776.21,1877.95,2143.32,600.24,599.60,33.66,0000 0000 0000 0000 000000
2018-04-12 04:14:12,0.05,5.84,0.00,25.53,28.86,31.93,14.08,49.76,1030.80,2015.94,1776.00,1877.27,2143.01,600.26,599.50,33.71,0000 0000 0000 0000 000000
2018-04-12 04:19:14,0.03,5.84,0.00,25.59,28.88,31.95,14.04,49.77,1030.78,2015.86,1775.65,1877.00,2142.72,600.13,599.37,33.76,0000 0000 0000 0000 000000
2018-04-12 04:24:15,0.02,5.84,0.00,25.65,28.90,31.96,13.98,49.72,1030.79,2015.72,1775.03,1876.89,2142.04,599.95,598.89,33.81,0000 0000 0000 0000 000000
2018-04-12 04:29:16,-0.00,5.84,0.00,25.63,28.92,31.99,14.04,49.67,1030.78,2015.32,1774.78,1876.13,2141.95,599.98,599.11,33.86,0000 0000 0000 0000 000000
2018-04-12 04:34:18,0.04,5.84,0.00,25.64,28.95,32.02,14.06,49.68,1030.78,2015.05,1774.06,1876.00,2141.24,600.33,599.33,33.91,0000 0000 0000 0000 000000
2018-04-12 04:39:19,0.02,5.84,0.00,25.72,28.97,32.03,14.12,49.88,1030.78,2015.03,1773.97,1875.77,2141.00,600.00,598.85,33.96,0000 0000 0000 0000 000000
2018-04-12 04:44:20,0.09,5.85,0.00,25.75,29.00,32.05,14.05,49.68,1030.78,2015.01,1773.21,1875.05,2140.62,599.91,598.77,34.02,0000 0000 0000 0000 000000
2018-04-12 04:49:22,0.01,5.85,0.00,25.75,29.02,32.09,14.07,49.69,1030.78,2015.00,1773.00,1874.99,2140.02,600.28,598.99,34.07,0000 0000 0000 0000 000000
2018-04-12 04:54:24,0.07,5.85,0.00,25.79,29.05,32.11,14.02,49.71,1030.78,2014.99,1772.59,1874.53,2139.91,599.95,598.68,34.12,0000 0000 0000 0000 000000
2018-04-12 04:59:25,0.05,5.86,0.00,25.87,29.07,32.12,13.93,49.71,1030.78,2014.98,1772.03,1874.02,2139.19,599.85,598.43,34.17,0000 0000 0000 0000 000000
2018-04-12 05:04:27,-0.00,5.86,0.00,25.85,29.11,32.15,14.01,49.64,1030.78,2014.88,1771.90,1873.93,2138.98,600.06,598.83,34.22,0000 0000 0000 0000 000000
2018-04-12 05:09:28,0.06,5.86,0.00,25.87,29.14,32.18,14.07,49.78,1030.78,2014.53,1771.11,1873.21,2138.37,600.22,598.77,34.27,0000 0000 0000 0000 000000
2018-04-12 05:14:29,-0.01,5.86,0.00,25.93,29.17,32.21,14.01,49.77,1030.74,2014.23,1770.95,1873.00,2138.01,600.05,598.34,34.32,0000 0000 0000 0000 000000
2018-04-12 05:19:30,0.06,5.86,0.00,26.00,29.21,32.22,14.06,49.76,1030.54,2014.03,1770.33,1872.67,2137.57,600.06,598.14,34.37,0000 0000 0000 0000 000000
2018-04-12 05:24:32,0.04,5.86,0.00,25.99,29.24,32.25,14.06,49.80,1030.45,2014.00,1770.00,1872.05,2137.02,600.22,598.33,34.42,0000 0000 0000 0000 000000
2018-04-12 05:29:33,0.04,5.87,0.00,26.01,29.28,32.28,14.04,49.80,1030.38,2014.00,1769.59,1871.98,2136.78,600.17,598.20,34.47,0000 0000 0000 0000 000000
2018-04-12 05:34:34,0.08,5.87,0.00,26.09,29.31,32.30,13.97,49.73,1030.31,2013.98,1769.01,1871.31,2136.07,599.60,597.65,34.52,0000 0000 0000 0000 000000
2018-04-12 05:39:35,0.03,5.87,0.00,26.10,29.35,32.33,14.00,49.83,1030.29,2013.95,1768.55,1871.00,2135.81,599.79,597.74,34.57,0000 0000 0000 0000 000000
2018-04-12 05:44:36,0.04,5.87,0.00,26.09,29.38,32.37,13.98,49.80,1030.29,2013.72,1768.01,1870.44,2135.06,599.91,597.67,34.62,0000 0000 0000 0000 000000
2018-04-12 05:49:37,-0.01,5.87,0.00,26.12,29.41,32.41,13.96,49.82,1030.28,2013.19,1767.58,1870.00,2134.75,599.66,597.48,34.67,0000 0000 0000 0000 000000
2018-04-12 05:54:39,0.05,5.88,0.00,26.20,29.45,32.42,13.93,49.66,1030.24,2013.03,1767.01,1869.65,2134.05,599.72,597.26,34.72,0000 0000 0000 0000 000000
2018-04-12 05:59:40,0.07,5.88,0.00,26.17,29.48,32.46,13.98,49.69,1030.20,2013.00,1766.34,1869.03,2133.70,599.40,596.99,34.77,0000 0000 0000 0000 000000
2018-04-12 06:04:41,0.02,5.88,0.00,26.18,29.51,32.49,13.99,49.73,1030.26,2013.00,1765.97,1868.87,2133.03,600.09,597.67,34.82,0000 0000 0000 0000 000000
2018-04-12 06:09:42,0.09,5.89,0.00,26.25,29.54,32.52,14.07,49.73,1030.28,2013.00,1765.25,1868.13,2132.77,600.22,597.87,34.87,0000 0000 0000 0000 000000
2018-04-12 06:14:44,0.02,5.89,0.00,26.26,29.56,32.54,13.91,49.80,1030.28,2012.95,1764.90,1867.98,2132.06,600.02,597.67,34.92,0000 0000 0000 0000 000000
2018-04-12 06:19:45,0.09,5.89,0.00,26.25,29.59,32.57,14.00,49.77,1030.28,2012.89,1764.10,1867.31,2131.73,599.92,597.22,34.97,0000 0000 0000 0000 000000
2018-04-12 06:24:46,0.03,5.89,0.00,26.32,29.61,32.62,13.96,49.71,1030.26,2012.64,1763.50,1866.98,2131.03,599.77,597.03,35.03,0000 0000 0000 0000 000000
2018-04-12 06:29:47,0.01,5.89,0.00,26.35,29.64,32.63,13.99,49.83,1030.24,2012.20,1763.00,1866.44,2130.64,599.87,597.08,35.08,0000 0000 0000 0000 000000
2018-04-12 06:34:48,0.04,5.90,0.00,26.35,29.66,32.66,13.94,49.75,1030.20,2012.06,1762.52,1866.01,2130.04,599.90,597.15,35.13,0000 0000 0000 0000 000000
2018-04-12 06:39:50,0.01,5.90,0.00,26.40,29.69,32.68,13.93,49.70,1030.18,2012.00,1762.02,1865.91,2129.88,599.94,597.17,35.18,0000 0000 0000 0000 000000
2018-04-12 06:44:51,0.08,5.90,0.00,26.45,29.71,32.70,14.00,49.64,1030.18,2012.00,1761.77,1865.20,2129.16,600.02,597.05,35.23,0000 0000 0000 0000 000000
2018-04-12 06:49:53,0.03,5.90,0.00,26.45,29.73,32.72,13.99,49.56,1030.09,2012.00,1761.05,1865.00,2129.00,600.01,597.14,35.28,0000 0000 0000 0000 000000
2018-04-12 06:54:54,0.04,5.91,0.00,26.47,29.75,32.75,13.96,49.66,1030.00,2012.00,1760.93,1864.85,2128.55,599.96,596.81,35.33,0000 0000 0000 0000 000000
2018-04-12 06:59:55,0.08,5.91,0.00,26.51,29.77,32.77,14.00,49.70,1029.96,2011.99,1760.20,1864.13,2128.01,600.10,596.91,35.38,0000 0000 0000 0000 000000
2018-04-12 07:04:56,0.01,5.91,0.00,26.50,29.78,32.79,13.98,49.77,1029.85,2011.97,1759.90,1864.00,2127.85,600.12,596.86,35.43,0000 0000 0000 0000 000000
2018-04-12 07:09:58,0.09,5.91,0.00,26.51,29.80,32.83,13.99,49.83,1029.85,2011.98,1759.09,1863.68,2127.12,599.90,596.62,35.48,0000 0000 0000 0000 000000
2018-04-12 07:14:59,0.05,5.92,0.00,26.49,29.80,32.85,13.92,49.68,1029.84,2011.98,1758.53,1863.03,2126.99,599.92,596.77,35.53,0000 0000 0000 0000 000000
2018-04-12 07:20:00,0.02,5.92,0.00,26.48,29.80,32.87,13.98,49.77,1029.81,2011.97,1758.02,1863.00,2126.69,600.15,596.86,35.58,0000 0000 0000 0000 000000
2018-04-12 07:25:01,0.01,5.92,0.00,26.50,29.81,32.87,13.96,49.77,1029.81,2011.95,1757.97,1862.95,2126.08,600.05,596.77,35.63,0000 0000 0000 0000 000000
2018-04-12 07:30:03,0.07,5.92,0.00,26.50,29.80,32.85,13.96,49.80,1029.80,2011.94,1757.34,1862.42,2126.00,599.99,596.79,35.68,0000 0000 0000 0000 000000
2018-04-12 07:35:04,0.02,5.93,0.00,26.49,29.80,32.83,13.97,49.81,1029.80,2011.97,1757.01,1862.05,2125.97,600.11,596.91,35.73,0000 0000 0000 0000 000000
2018-04-12 07:40:05,0.02,5.93,0.00,26.50,29.78,32.82,13.98,49.73,1029.68,2011.97,1756.98,1862.00,2125.50,600.04,596.70,35.78,0000 0000 0000 0000 000000
2018-04-12 07:45:07,0.03,5.93,0.00,26.51,29.77,32.78,13.99,49.78,1029.53,2011.99,1756.63,1862.00,2125.09,600.11,596.64,35.83,0000 0000 0000 0000 000000
2018-04-12 07:50:08,0.02,5.93,0.00,26.48,29.76,32.81,14.00,49.71,1029.54,2011.99,1756.05,1861.97,2125.01,600.29,597.01,35.88,0000 0000 0000 0000 000000
2018-04-12 07:55:09,0.02,5.93,0.00,26.46,29.73,32.83,14.02,49.67,1029.34,2011.99,1756.00,1861.75,2125.00,600.08,596.59,35.94,0000 0000 0000 0000 000000
2018-04-12 08:00:10,0.03,5.93,0.00,26.43,29.70,32.83,13.91,49.88,1029.33,2011.99,1755.91,1861.21,2124.95,599.86,596.43,35.99,0000 0000 0000 0000 000000
2018-04-12 08:05:12,0.04,5.94,0.00,26.42,29.66,32.68,13.96,49.95,1029.31,2011.99,1755.27,1861.02,2124.73,599.87,596.46,36.04,0000 0000 0000 0000 000000
2018-04-12 08:10:13,0.02,5.94,0.00,26.44,29.63,32.58,13.98,49.88,1029.31,2012.01,1755.01,1861.01,2124.28,600.26,596.77,36.09,0000 0000 0000 0000 000000
2018-04-12 08:15:15,0.01,5.94,0.00,26.31,29.59,32.56,13.99,50.04,1029.31,2012.09,1755.00,1861.00,2124.11,599.99,596.81,36.14,0000 0000 0000 0000 000000
2018-04-12 08:20:16,0.03,5.94,0.00,26.12,29.54,32.49,13.92,49.98,1029.31,2012.30,1754.90,1861.00,2124.02,600.40,597.42,36.19,0000 0000 0000 0000 000000
2018-04-12 08:25:17,0.09,5.94,0.00,25.95,29.49,32.44,14.04,50.09,1029.31,2012.81,1754.28,1861.00,2124.00,600.00,597.54,36.24,0000 0000 0000 0000 000000
2018-04-12 08:30:18,0.01,5.95,0.00,25.87,29.43,32.40,14.02,50.27,1029.31,2012.98,1754.03,1860.99,2124.00,600.39,598.15,36.29,0000 0000 0000 0000 000000
2018-04-12 08:35:20,0.00,5.95,0.00,25.90,29.38,32.31,13.93,50.33,1029.31,2012.99,1754.00,1860.99,2124.00,600.03,597.62,36.34,0000 0000 0000 0000 000000
2018-04-12 08:40:21,0.01,5.95,0.00,25.86,29.33,32.28,14.01,50.19,1029.31,2013.04,1753.99,1860.99,2124.00,599.94,597.64,36.39,0000 0000 0000 0000 000000
2018-04-12 08:45:22,0.04,5.95,0.00,25.79,29.27,32.19,13.97,50.19,1029.31,2013.32,1753.92,1860.98,2124.00,599.46,597.30,36.44,0000 0000 0000 0000 000000
2018-04-12 08:50:24,0.07,5.95,0.00,25.84,29.22,32.13,14.00,50.02,1029.30,2013.81,1753.87,1860.98,2124.00,600.20,597.88,36.49,0000 0000 0000 0000 000000
2018-04-12 08:55:25,0.03,5.95,0.00,25.79,29.17,32.06,14.00,49.92,1029.30,2013.98,1753.42,1860.98,2123.99,600.14,598.19,36.54,0000 0000 0000 0000 000000
2018-04-12 09:00:26,0.01,5.96,0.00,25.76,29.12,32.00,14.04,50.09,1029.26,2013.99,1753.01,1860.91,2123.97,600.10,597.97,36.59,0000 0000 0000 0000 000000
2018-04-12 09:05:28,0.00,5.96,0.00,25.79,29.07,31.94,14.04,49.98,1029.28,2014.00,1753.00,1860.83,2123.96,599.72,597.62,36.64,0000 0000 0000 0000 000000
2018-04-12 09:10:29,0.03,5.96,0.00,25.74,29.02,31.88,13.95,50.02,1029.26,2014.11,1752.99,1860.58,2123.88,599.41,597.26,36.69,0000 0000 0000 0000 000000
2018-04-12 09:15:30,0.11,5.96,0.00,25.71,28.97,31.82,14.00,50.08,1029.29,2014.63,1752.71,1860.31,2123.72,600.46,598.42,36.74,0000 0000 0000 0000 000000
2018-04-12 09:20:31,0.06,5.97,0.00,25.77,28.92,31.77,13.97,50.15,1029.28,2014.97,1752.19,1860.15,2123.43,600.04,597.91,36.79,0000 0000 0000 0000 000000
2018-04-12 09:25:33,0.02,5.97,0.00,25.73,28.88,31.74,13.99,50.26,1029.23,2014.99,1752.00,1860.06,2123.13,599.96,598.00,36.85,0000 0000 0000 0000 000000
2018-04-12 09:30:34,0.01,5.97,0.00,25.71,28.84,31.72,14.02,50.28,1029.18,2015.02,1751.99,1860.01,2123.05,599.98,597.82,36.90,0000 0000 0000 0000 000000
2018-04-12 09:35:36,0.03,5.97,0.00,25.76,28.80,31.71,13.97,50.27,1028.99,2015.16,1751.95,1860.00,2123.00,599.72,597.53,36.95,0000 0000 0000 0000 000000
2018-04-12 09:40:37,0.10,5.97,0.00,25.72,28.76,31.72,14.00,50.28,1028.88,2015.63,1751.46,1860.00,2123.00,599.83,597.58,37.00,0000 0000 0000 0000 000000
2018-04-12 09:45:39,0.03,5.98,0.00,25.71,28.73,31.72,14.01,50.22,1028.88,2015.95,1751.06,1860.00,2122.99,599.98,597.78,37.05,0000 0000 0000 0000 000000
2018-04-12 09:50:40,0.00,5.98,0.00,25.75,28.70,31.72,14.01,50.15,1028.94,2015.98,1751.00,1859.98,2122.96,600.58,598.26,37.10,0000 0000 0000 0000 000000
2018-04-12 09:55:41,0.02,5.98,0.00,25.68,28.66,31.67,13.95,50.08,1028.88,2015.99,1750.90,1859.92,2122.64,599.95,597.79,37.15,0000 0000 0000 0000 000000
2018-04-12 10:00:42,0.07,5.98,0.00,25.70,28.63,31.63,14.00,50.17,1028.85,2015.99,1750.22,1859.55,2122.11,599.94,597.69,37.20,0000 0000 0000 0000 000000
2018-04-12 10:05:43,0.02,5.98,0.00,25.73,28.61,31.56,13.98,50.08,1028.85,2016.00,1750.01,1859.15,2122.03,600.07,597.62,37.25,0000 0000 0000 0000 000000
2018-04-12 10:10:44,0.01,5.98,0.00,25.67,28.58,31.49,13.98,50.04,1028.83,2016.05,1749.97,1859.02,2122.00,600.37,598.18,37.30,0000 0000 0000 0000 000000
2018-04-12 10:15:46,0.04,5.98,0.00,25.70,28.56,31.40,13.94,50.09,1028.84,2016.23,1749.75,1859.00,2121.99,599.98,597.81,37.35,0000 0000 0000 0000 000000
2018-04-12 10:20:47,0.09,5.99,0.00,25.70,28.53,31.39,14.00,50.08,1028.83,2016.69,1749.10,1859.00,2121.94,600.38,598.15,37.40,0000 0000 0000 0000 000000
2018-04-12 10:25:48,0.03,5.99,0.00,25.66,28.51,31.35,13.93,50.22,1028.83,2016.93,1749.00,1858.98,2121.54,599.74,597.59,37.45,0000 0000 0000 0000 000000
2018-04-12 10:30:49,0.03,5.99,0.00,25.67,28.49,31.30,13.96,49.98,1028.82,2016.96,1748.94,1858.79,2121.07,600.23,597.95,37.50,0000 0000 0000 0000 000000
2018-04-12 10:35:50,0.07,6.00,0.00,25.65,28.47,31.30,13.99,50.01,1028.74,2016.99,1748.31,1858.20,2121.00,599.84,597.65,37.55,0000 0000 0000 0000 000000
2018-04-12 10:40:51,0.01,6.00,0.00,25.61,28.45,31.31,13.96,50.06,1028.58,2016.99,1748.01,1858.01,2120.98,599.54,597.32,37.60,0000 0000 0000 0000 000000
2018-04-12 10:45:53,0.01,6.00,0.00,25.62,28.43,31.32,13.88,50.01,1028.46,2016.99,1747.98,1858.00,2120.71,599.54,597.26,37.65,0000 0000 0000 0000 000000
2018-04-12 10:50:54,0.05,6.00,0.00,25.59,28.42,31.31,13.95,49.94,1028.41,2016.99,1747.39,1857.99,2120.11,599.75,597.50,37.70,0000 0000 0000 0000 000000
2018-04-12 10:55:55,0.03,6.00,0.00,25.52,28.40,31.31,14.00,49.95,1028.35,2017.01,1747.01,1857.68,2120.00,599.97,597.80,37.75,0000 0000 0000 0000 000000
2018-04-12 11:00:57,0.03,6.01,0.00,25.54,28.38,31.29,14.01,50.00,1028.35,2017.02,1746.94,1857.07,2119.99,600.15,597.98,37.80,0000 0000 0000 0000 000000
2018-04-12 11:05:58,0.05,6.01,0.00,25.66,28.36,31.31,13.94,50.03,1028.35,2017.07,1746.34,1857.00,2119.76,600.08,597.57,37.85,0000 0000 0000 0000 000000
2018-04-12 11:10:59,0.07,6.01,0.00,25.69,28.35,31.33,13.98,49.98,1028.34,2017.32,1746.01,1857.00,2119.12,599.59,597.08,37.91,0000 0000 0000 0000 000000
2018-04-12 11:16:00,0.03,6.01,0.00,25.74,28.35,31.34,14.02,50.03,1028.34,2017.75,1745.98,1856.97,2119.00,600.00,597.39,37.96,0000 0000 0000 0000 000000
2018-04-12 11:21:02,0.08,6.02,0.00,25.78,28.35,31.33,13.93,49.82,1028.34,2017.78,1745.48,1856.46,2118.97,599.75,597.02,38.01,0000 0000 0000 0000 000000
2018-04-12 11:26:03,0.04,6.02,0.00,25.74,28.35,31.29,13.94,49.67,1028.34,2017.75,1745.02,1856.02,2118.40,599.79,597.16,38.06,0000 0000 0000 0000 000000
2018-04-12 11:31:04,0.01,6.02,0.00,25.74,28.35,31.28,13.97,49.84,1028.34,2017.77,1744.99,1856.00,2118.01,599.92,597.35,38.11,0000 0000 0000 0000 000000
2018-04-12 11:36:06,0.04,6.02,0.00,25.82,28.36,31.29,14.04,49.77,1028.29,2017.74,1744.38,1855.91,2117.97,600.40,597.59,38.16,0000 0000 0000 0000 000000
2018-04-12 11:41:07,0.08,6.03,0.00,25.83,28.38,31.34,13.97,49.74,1028.15,2017.80,1744.01,1855.27,2117.42,600.21,597.31,38.21,0000 0000 0000 0000 000000
2018-04-12 11:46:08,-0.03,6.03,0.00,25.83,28.41,31.41,13.88,49.80,1027.97,2017.46,1743.73,1855.00,2117.00,599.61,596.65,38.26,0000 0000 0000 0000 000000
2018-04-12 11:51:09,0.02,6.03,0.00,25.93,28.44,31.47,14.02,49.92,1028.00,2017.10,1743.03,1854.96,2116.65,600.00,596.79,38.31,0000 0000 0000 0000 000000
2018-04-12 11:56:11,0.06,6.03,0.00,25.95,28.48,31.52,13.97,49.75,1027.92,2017.02,1742.79,1854.22,2116.03,599.91,596.66,38.36,0000 0000 0000 0000 000000
2018-04-12 12:01:12,0.04,6.03,0.00,25.96,28.51,31.57,13.92,49.70,1027.88,2017.00,1742.07,1854.00,2115.76,600.04,596.71,38.41,0000 0000 0000 0000 000000
2018-04-12 12:06:13,0.07,6.03,0.00,26.05,28.56,31.66,13.91,49.66,1027.86,2017.00,1741.80,1853.60,2115.05,600.27,596.79,38.46,0000 0000 0000 0000 000000
2018-04-12 12:11:15,0.05,6.04,0.00,26.07,28.60,31.71,14.01,49.61,1027.86,2016.98,1741.06,1853.02,2114.73,600.35,596.77,38.51,0000 0000 0000 0000 000000
2018-04-12 12:16:16,0.02,6.04,0.00,26.11,28.65,31.78,13.84,49.58,1027.86,2016.89,1740.87,1852.90,2114.04,599.91,596.27,38.56,0000 0000 0000 0000 000000
2018-04-12 12:21:17,0.01,6.04,0.00,26.16,28.70,31.85,13.98,49.63,1027.85,2016.31,1740.09,1852.13,2113.71,600.03,596.47,38.61,0000 0000 0000 0000 000000
2018-04-12 12:26:18,0.01,6.04,0.00,26.17,28.75,31.88,14.01,49.57,1027.85,2016.02,1739.84,1851.98,2113.03,599.98,596.17,38.66,0000 0000 0000 0000 000000
2018-04-12 12:31:20,0.10,6.05,0.00,26.19,28.80,31.95,13.91,49.65,1027.84,2016.00,1739.09,1851.31,2112.62,599.91,596.02,38.71,0000 0000 0000 0000 000000
2018-04-12 12:36:21,0.04,6.05,0.00,26.24,28.85,31.99,14.00,49.63,1027.84,2016.00,1738.72,1850.97,2112.01,600.09,596.23,38.77,0000 0000 0000 0000 000000
2018-04-12 12:41:22,0.08,6.05,0.00,26.24,28.91,32.06,13.92,49.60,1027.77,2015.92,1738.03,1850.38,2111.42,599.71,595.85,38.82,0000 0000 0000 0000 000000
2018-04-12 12:46:24,-0.02,6.05,0.00,26.23,28.96,32.13,13.97,49.57,1027.64,2015.46,1737.53,1849.99,2111.01,600.20,596.23,38.87,0000 0000 0000 0000 000000
2018-04-12 12:51:25,0.05,6.05,0.00,26.31,29.01,32.20,13.96,49.58,1027.69,2015.03,1736.99,1849.41,2110.51,600.14,595.92,38.92,0000 0000 0000 0000 000000
2018-04-12 12:56:27,0.06,6.06,0.00,26.27,29.06,32.24,13.94,49.58,1027.66,2015.00,1736.20,1848.99,2109.95,599.86,595.88,38.97,0000 0000 0000 0000 000000